Location: Ferris
(32.5340°N, 96.6656°W)
Time: 23:16:34
(UTC+00:00)

Cosmos 1354 Rocket - Pass Details

Date: 24 May 2026
Orbit: 761 x 778 km, 74.0° (Epoch: 7 June)

Event Time Altitude Azimuth Distance (km) Brightness Sun altitude
Rises 03:14:07 0° 346° (NNW) 3,228 8.2 -20.1°
Reaches altitude 10° 03:16:31 10° 348° (NNW) 2,298 7.2 -20.5°
Maximum altitude 03:21:43 71° 73° (ENE) 805 3.9 -21.2°
Enters shadow 03:23:02 49° 138° (SE) 973 4.1 -21.4°
